User: anonymous   Login
Location: Julian California
(33.0790°N, 116.6010°W)
Time: 10:46:26
(UTC-07:00)
Language:

Cosmos 1461 - Orbit

View from above orbital plane
View from above orbital plane
View from above satellite
View from above satellite

Ground track
Ground track

The orbit data is extracted from the following two-line orbital elements,

1 14064U 83044A   18203.24387994 +.00000141 +00000-0 +26411-4 0  9998
2 14064 065.0009 126.4388 0119403 250.3203 108.4998 14.94122611783112
Epoch (UTC): 22 July 2018 05:51:11
Eccentricity: 0.0119403
inclination: 65.0009°
perigee height: 502 km
apogee height: 668 km
right ascension of ascending node: 126.4388°
argument of perigee: 250.3203°
revolutions per day: 14.94122611
mean anomaly at epoch: 108.4998°
orbit number at epoch: 78311

The dashed part of the orbit path shows where the satellite is in the earth's shadow,  

DLR